Dewpoint
73 74 74 74 73 73 74 74 75 74 76 76 76 75 75 75 75 75 76 76 76 76 75 76 76 76 75 75 75 75 75 75 74 74 75 75 76 76 76 75 75 75 75 75 74 75 75 74 74 74 74 74 74 75 74 74 74 75 75 75 75 75 75 75 75 75 75 74 75 75 75 75 74 75 74 74 74 74 74 74 73 71 73 73 75
73 73 73 74 73 73 73 74 74 75 75 75 75 75 75 75 75 75 75 75 76 75 76 76 76 75 76 75 75 74 74 75 75 75 74 76 76 76 76 75 75 75 75 75 75 75 74 74 74 74 74 74 74 74 74 75 75 75 75 75 75 75 74 75 75 75 75 75 75 75 75 74 74 74 74 74 74 74 74 73 73 72 74 74 75
73 74 73 74 73 73 74 75 74 74 75 75 75 75 75 75 75 75 75 75 75 75 75 75 75 76 75 75 74 73 73 74 75 75 75 75 75 76 75 75 75 75 75 75 74 74 74 74 74 74 74 74 74 74 74 75 75 75 75 75 75 75 75 75 75 75 75 75 75 75 75 75 75 75 75 75 75 75 75 74 74 74 74 74 74
73 72 73 74 74 74 74 74 75 75 75 75 75 75 75 75 75 75 75 75 75 76 75 75 75 75 74 74 74 74 74 74 75 75 75 75 75 75 75 75 75 75 75 75 74 74 74 74 74 74 74 74 74 74 74 74 75 75 75 75 75 75 75 75 75 75 75 75 74 74 74 74 74 75 75 75 75 75 75 75 75 75 75 75 74
71 72 74 74 74 74 74 74 74 75 75 75 75 75 75 75 75 75 75 75 75 75 75 74 75 74 73 74 74 74 74 74 75 75 74 75 76 75 75 74 75 75 75 75 75 74 74 73 74 74 74 74 74 74 74 75 75 75 75 75 75 75 75 75 74 74 74 75 74 72 73 73 74 74 75 75 75 75 75 75 75 74 75 74 74
70 70 73 73 73 75 74 75 75 75 75 75 75 75 74 75 75 75 76 75 74 75 74 74 73 74 73 73 74 73 74 74 74 75 74 74 74 75 75 75 75 75 75 75 75 74 75 75 75 74 74 73 74 75 75 75 75 75 75 75 75 75 75 75 75 75 75 74 74 73 73 74 71 74 74 74 74 74 75 75 74 74 74 74 75
70 71 72 73 74 75 74 74 75 75 75 75 75 75 75 75 75 75 75 75 74 75 73 73 74 73 74 74 74 74 73 74 74 74 74 74 75 74 75 75 75 75 74 75 75 75 75 75 75 75 75 75 75 75 75 75 75 74 74 75 75 75 75 74 74 74 73 73 73 73 72 73 73 73 74 74 74 74 75 74 74 74 74 74 73
70 71 72 73 73 74 75 75 75 75 75 75 75 75 75 75 76 75 75 74 75 75 73 72 72 73 74 74 74 74 74 74 75 75 74 74 75 74 74 75 75 74 74 74 75 75 75 74 74 74 74 74 74 74 74 74 74 74 74 74 75 75 75 75 74 74 74 74 74 73 71 73 73 72 75 74 75 74 74 74 74 73 74 73 74
70 71 71 72 72 75 75 75 75 75 76 76 75 75 75 75 75 75 75 75 75 74 73 73 72 72 73 74 74 74 74 74 74 75 74 74 74 75 75 74 74 74 74 74 75 75 74 74 75 74 74 74 74 74 73 73 74 74 74 75 75 75 75 74 74 74 74 74 74 74 74 73 70 72 74 74 74 73 74 74 73 73 73 73 73
68 69 72 74 71 76 75 75 75 76 76 75 75 75 76 75 74 74 74 74 74 74 74 73 72 72 73 74 74 75 75 75 74 75 74 73 75 75 74 75 75 74 74 75 75 74 74 74 75 74 74 74 74 74 74 73 74 74 74 75 75 74 74 74 74 73 73 74 73 73 72 72 71 72 74 73 73 73 74 74 74 73 73 73 73
68 70 71 71 73 76 76 75 76 75 75 75 75 75 75 74 74 74 74 74 74 73 74 73 73 73 74 74 74 75 74 74 74 74 74 74 74 74 74 74 74 74 74 74 74 75 75 75 75 75 75 74 74 74 74 74 74 74 74 75 75 74 73 72 71 71 72 74 72 72 72 72 72 73 74 73 73 73 73 73 73 73 73 73 73
67 70 71 73 77 76 75 76 76 75 75 75 75 75 74 74 74 74 74 75 75 74 74 73 73 74 74 74 74 74 74 74 74 74 74 74 74 75 74 74 75 74 74 74 75 74 75 75 75 75 75 76 75 74 74 74 74 74 75 75 75 74 73 72 72 72 74 73 73 72 70 70 71 71 73 73 73 73 73 73 73 73 73 73 73
66 68 70 71 74 76 76 75 75 75 75 75 74 75 74 74 74 75 74 74 74 74 74 73 74 74 74 74 74 74 74 74 73 74 74 74 75 74 74 74 74 74 74 74 75 75 74 75 75 75 76 75 76 75 74 74 75 75 75 75 74 74 73 72 73 73 73 74 74 73 71 71 73 74 73 73 73 73 73 73 73 73 73 73 72
66 67 70 71 73 76 75 75 75 75 75 74 75 75 74 74 74 74 74 74 74 73 74 74 74 74 74 74 74 74 74 74 73 74 74 74 74 74 74 74 75 74 74 74 74 74 74 74 74 74 75 76 75 75 74 74 74 74 74 74 74 73 73 71 71 72 73 72 73 73 73 73 73 75 73 73 73 73 73 73 73 73 73 73 73
65 68 70 70 73 74 75 75 75 74 74 74 74 75 74 74 74 74 74 74 73 73 74 74 74 74 73 74 74 74 74 74 74 74 75 75 74 74 75 74 74 74 74 74 74 74 74 74 74 74 74 75 75 75 74 74 74 75 74 74 74 72 70 67 67 70 69 71 71 70 71 73 74 73 73 73 73 73 73 73 72 72 72 72 72
68 69 71 72 73 74 75 75 74 74 74 73 73 74 74 74 74 74 74 74 73 73 73 74 74 74 74 74 74 74 74 73 74 75 74 74 74 74 74 74 74 74 74 74 75 75 75 74 74 74 74 75 76 75 75 74 74 74 74 74 73 73 72 67 69 68 68 69 71 71 70 73 74 73 73 73 73 73 72 72 72 72 72 72 72
68 70 70 70 72 73 73 74 74 74 74 74 74 74 74 74 74 74 75 75 74 74 75 75 75 75 74 74 74 74 74 74 75 75 74 74 74 75 74 74 75 74 75 74 75 74 75 75 76 75 75 75 75 75 75 75 74 74 74 74 73 72 72 68 66 65 66 69 66 69 70 71 73 73 73 73 73 72 72 72 72 72 71 71 71
70 71 71 71 72 72 73 73 75 75 75 74 74 74 75 75 75 74 75 75 74 74 74 74 74 75 75 75 74 74 74 74 75 75 75 75 75 74 75 75 75 74 74 75 74 75 75 76 76 76 75 75 75 75 75 74 74 74 74 73 73 72 71 72 65 65 66 67 65 67 69 73 73 73 73 73 73 73 73 73 72 72 72 72 72
69 70 70 71 71 72 74 73 75 74 75 74 74 75 74 75 75 75 74 74 74 74 73 74 75 75 74 74 75 74 75 74 75 75 75 75 75 75 75 74 74 74 74 74 74 75 75 75 75 75 75 75 75 74 75 74 74 74 74 73 73 72 72 71 65 66 67 67 68 68 70 74 73 73 73 73 73 73 72 72 72 72 72 72 72
70 70 70 72 72 72 73 74 74 74 74 73 75 75 75 75 74 75 75 75 74 75 74 74 74 75 75 74 74 74 75 74 75 74 74 74 74 74 74 74 74 73 74 74 74 74 75 75 75 75 75 75 75 74 74 74 74 74 74 73 73 72 71 64 65 65 64 67 69 69 74 73 73 73 73 73 73 72 72 73 72 71 72 72 72
69 70 71 72 71 71 72 73 72 72 72 74 74 74 75 74 75 75 76 75 75 75 74 75 74 75 75 75 74 75 75 75 75 74 74 74 74 75 75 75 74 74 74 73 73 74 75 75 75 75 75 75 75 75 75 75 74 74 74 73 72 72 66 67 64 66 66 68 69 70 75 74 73 73 73 73 73 72 72 72 71 71 71 71 71
69 70 71 72 71 72 73 72 73 74 73 72 72 74 74 76 77 76 76 75 74 74 75 75 75 75 74 75 75 74 74 74 74 74 74 74 74 74 74 74 74 74 74 73 73 74 75 75 75 75 75 75 75 73 75 75 75 74 74 74 74 66 68 66 66 67 67 68 70 73 74 74 74 74 73 73 73 72 73 72 72 73 73 73 72
68 70 71 71 72 72 73 72 74 74 73 73 71 74 76 76 75 75 75 74 74 75 75 74 75 75 75 74 75 74 74 75 74 74 74 74 73 74 74 74 73 74 73 74 74 75 75 75 75 75 75 75 76 73 73 72 74 75 75 75 68 67 69 67 66 66 67 69 69 75 74 74 74 74 74 73 74 73 74 73 72 73 73 73 72
66 68 70 70 71 72 73 74 75 73 73 72 73 74 74 75 74 74 74 74 75 75 75 75 75 75 74 75 74 75 74 74 74 74 74 74 74 75 75 75 75 74 74 74 75 75 75 75 75 74 75 73 70 66 66 67 69 70 71 69 67 68 67 68 65 66 67 68 69 75 74 74 74 74 74 73 73 73 73 73 72 73 73 73 73
67 68 70 70 70 71 73 74 75 73 73 72 72 72 74 74 73 72 73 73 74 74 74 75 74 75 75 74 74 74 73 73 74 75 74 75 74 73 74 73 74 73 75 75 73 73 74 72 73 75 69 68 67 68 67 67 68 67 66 67 66 68 66 67 65 65 68 70 73 75 75 74 74 74 74 74 73 73 73 73 74 73 73 73 73
68 67 69 70 69 70 72 73 73 74 73 72 72 73 74 71 72 72 72 73 73 74 73 74 73 74 73 71 73 74 74 75 74 74 74 73 71 70 71 71 71 73 73 72 70 71 70 68 69 68 66 66 65 67 67 68 67 66 66 68 67 67 67 64 64 68 69 69 75 75 75 74 74 74 73 73 73 73 73 73 73 73 74 73 73
67 67 68 69 69 69 71 71 72 74 74 73 72 72 71 71 72 71 71 71 72 72 73 73 74 74 72 72 71 70 69 69 71 71 70 71 71 70 70 71 72 71 71 69 71 71 70 69 70 71 70 65 64 68 68 67 67 64 65 65 68 66 67 66 66 66 67 68 74 75 74 75 74 74 74 74 73 73 73 73 73 73 73 73 73
67 67 67 68 69 68 71 71 71 71 73 72 72 72 71 70 70 72 72 71 71 71 70 72 73 74 74 71 68 67 66 67 70 70 70 71 70 71 71 70 71 70 71 71 71 71 71 71 73 73 71 70 65 66 64 66 65 67 65 65 66 67 67 65 67 68 67 67 71 75 75 74 74 74 74 73 73 73 73 73 73 73 73 73 73
65 67 67 68 68 69 70 70 71 71 70 70 70 70 70 70 69 69 71 72 71 70 71 72 71 71 72 72 69 65 65 66 67 69 70 71 70 71 69 69 71 71 72 70 72 72 72 72 72 71 72 72 67 65 66 63 66 66 65 64 64 67 67 66 68 67 66 67 68 74 75 75 74 75 74 74 74 73 73 73 73 73 73 73 72
64 66 67 68 68 68 68 68 69 71 70 68 70 71 70 70 71 71 72 72 71 72 71 69 70 69 70 72 68 66 66 67 69 69 69 70 69 70 71 71 70 71 70 72 72 71 70 70 72 72 70 71 69 68 66 62 62 62 64 64 63 62 67 66 67 67 68 68 68 72 75 75 75 75 75 75 74 75 75 74 74 74 74 74 74
65 65 66 68 69 68 68 69 70 72 70 69 70 71 71 71 71 70 71 71 72 72 70 68 67 67 71 74 73 72 68 67 69 69 70 69 70 71 71 72 70 70 72 71 73 73 72 72 72 72 72 72 69 67 66 65 65 63 63 63 62 65 64 67 65 65 64 68 70 70 75 75 74 75 75 75 75 75 75 75 75 75 75 75 75
65 64 66 68 67 66 67 68 69 71 72 69 72 71 71 71 72 71 70 72 72 69 68 69 69 68 71 73 73 72 73 71 71 71 71 70 71 70 71 72 72 72 73 73 73 74 74 74 73 73 73 73 70 67 68 64 65 62 64 61 63 64 64 66 63 63 66 69 70 71 72 74 75 75 75 75 75 76 76 76 76 76 76 76 76
65 65 67 66 66 67 68 69 69 71 71 69 69 70 70 70 71 70 71 70 70 69 68 69 71 72 73 73 75 75 76 74 74 72 72 71 71 71 71 73 74 74 74 73 74 75 74 72 73 73 71 71 68 67 66 64 64 65 64 61 63 64 65 66 67 67 65 67 69 69 70 71 72 76 75 75 75 75 75 76 77 77 77 77 77
66 67 66 66 66 67 68 68 70 70 71 69 71 70 71 71 71 70 72 70 68 68 69 70 70 71 73 74 74 75 75 75 75 74 72 71 73 73 72 73 75 76 75 75 73 73 73 73 71 70 70 70 67 67 66 65 63 63 64 63 65 66 67 64 65 65 66 66 67 70 69 70 70 72 74 77 76 75 76 76 76 77 77 77 77
67 67 67 68 67 68 67 67 70 71 71 71 71 72 71 70 71 71 71 72 70 68 66 69 70 70 72 73 75 75 75 75 75 74 73 72 71 71 72 73 76 76 73 74 74 74 74 73 71 70 70 68 67 67 66 65 64 64 66 67 65 65 67 65 66 65 65 68 69 67 69 69 68 70 71 69 78 77 77 77 77 77 77 77 77
67 68 68 68 67 68 68 67 69 70 72 72 73 73 73 74 73 73 72 73 70 69 67 68 70 70 71 74 75 76 76 76 75 74 72 72 71 71 72 75 76 75 74 74 75 74 74 73 73 71 70 66 67 65 66 65 64 62 64 66 66 66 66 66 65 63 63 67 68 68 69 69 70 69 69 69 69 77 77 77 76 76 76 77 77
66 67 69 69 69 68 69 66 67 69 71 71 73 74 74 74 74 72 70 73 69 70 69 70 71 72 71 72 75 76 76 75 75 75 73 73 71 72 73 75 75 75 75 74 73 73 73 68 74 74 72 68 64 62 64 65 63 62 62 62 64 67 67 67 65 64 63 67 68 64 66 68 69 69 72 68 70 70 77 77 77 77 76 77 77
68 68 69 68 67 67 67 67 69 68 72 72 74 73 73 75 74 73 74 72 70 68 69 70 71 70 72 73 75 75 75 75 76 76 75 73 73 73 74 75 75 75 75 74 74 73 73 71 73 73 72 69 65 64 63 62 59 59 62 61 65 64 65 66 66 66 66 66 67 66 66 65 66 65 66 68 66 70 70 77 77 77 77 77 77
66 68 69 70 70 69 69 71 70 70 70 74 74 74 74 75 73 74 73 74 73 71 70 70 70 71 70 73 75 75 75 75 76 76 76 73 73 73 74 74 74 74 75 73 73 74 74 72 72 73 73 69 67 66 65 65 59 60 59 61 63 66 66 64 67 66 64 63 63 67 61 67 65 67 69 69 65 68 71 71 71 72 77 78 77
66 69 71 71 71 70 71 72 71 70 71 73 73 72 72 72 71 72 72 72 73 72 73 71 71 70 71 73 75 75 74 75 76 76 76 75 74 73 74 74 74 74 75 73 73 73 74 73 73 71 71 69 68 67 65 66 63 64 65 64 64 65 66 65 66 65 65 64 64 65 62 62 65 65 64 65 67 64 69 71 72 69 71 77 77
68 70 70 70 72 71 72 71 71 73 71 72 72 71 72 73 72 69 69 70 73 72 71 71 71 72 74 74 75 73 75 75 76 77 76 75 75 74 75 75 74 74 75 75 74 74 74 73 73 74 69 68 66 65 65 66 65 63 66 64 65 65 64 66 64 62 61 61 61 62 61 64 64 65 67 65 66 66 67 70 70 71 71 73 78
69 70 71 71 71 71 71 71 71 72 72 72 72 73 73 72 71 70 67 68 70 70 71 72 70 71 75 75 75 75 75 76 77 77 77 76 75 73 75 74 73 75 75 75 75 74 74 73 72 71 69 67 66 65 65 66 63 61 62 61 61 63 65 63 61 59 60 60 59 63 64 60 58 60 63 67 69 68 64 68 70 69 72 72 72
67 68 70 70 71 71 72 73 71 71 72 73 73 74 73 74 71 70 68 67 69 70 69 71 71 71 72 75 76 76 76 77 77 77 77 76 75 75 75 75 75 75 75 75 74 74 73 72 73 71 68 67 66 66 69 68 61 62 65 64 60 60 63 62 61 59 58 59 59 54 60 58 58 61 63 65 66 67 64 67 69 72 73 73 71
68 67 68 70 69 72 73 74 73 71 72 72 73 72 73 75 75 75 74 72 71 72 73 72 73 72 71 72 75 75 75 75 75 75 75 76 75 75 74 74 75 75 74 74 74 74 74 73 72 71 70 66 64 66 66 69 68 66 61 61 61 59 58 62 63 61 59 58 58 56 57 58 58 63 65 64 60 66 68 69 68 72 73 73 73
66 67 67 67 66 70 73 74 73 72 72 73 73 73 74 74 75 75 75 74 73 72 71 69 71 72 71 72 73 75 75 76 75 76 75 76 76 76 75 75 75 75 74 73 74 72 71 73 73 73 71 68 65 66 66 66 68 70 66 64 60 61 62 60 59 61 59 58 57 56 60 59 58 64 60 63 61 63 62 65 71 71 73 73 73
66 67 66 66 67 69 72 74 73 73 71 73 74 74 73 73 74 73 72 72 72 70 69 70 69 68 68 70 73 72 73 75 76 76 76 76 76 76 75 75 75 74 74 74 74 71 71 73 73 72 71 70 70 67 65 67 67 70 69 65 68 64 64 63 62 61 65 61 59 57 59 59 59 61 64 60 59 57 62 64 69 70 71 72 72
66 66 66 66 67 70 73 73 74 73 72 74 74 74 74 74 74 72 71 72 71 70 72 71 70 69 71 71 73 73 75 74 74 76 76 77 76 76 76 75 74 75 74 74 74 70 69 71 72 72 71 72 71 69 68 65 68 68 65 64 65 65 63 63 62 62 63 63 60 58 57 59 58 58 57 58 57 60 61 65 58 61 69 72 71
64 65 66 66 68 72 73 73 74 74 73 74 74 74 74 74 74 73 72 72 70 72 72 73 73 73 72 72 72 73 74 74 74 75 76 76 75 76 76 75 74 75 73 73 72 70 71 73 74 74 74 73 72 70 69 66 67 66 67 66 65 65 67 64 64 63 62 64 61 59 59 59 59 57 57 57 57 59 60 63 62 62 64 69 69
62 64 66 67 68 71 74 74 74 75 74 74 74 73 74 74 74 73 73 73 72 72 72 73 73 73 74 73 74 73 74 75 74 75 75 75 75 76 76 75 75 74 73 72 70 70 72 73 74 75 74 73 72 71 72 70 68 67 70 70 68 66 63 64 65 65 63 62 59 60 61 60 61 61 61 59 58 58 59 58 64 62 67 67 69
62 64 65 66 67 70 73 74 74 74 74 75 74 74 74 74 74 74 73 73 73 74 72 73 74 74 74 74 75 75 72 73 75 75 76 75 76 76 75 75 74 72 72 73 72 72 73 74 74 73 74 73 73 72 71 70 69 69 69 70 70 68 67 65 63 62 62 65 60 59 59 60 63 61 62 59 60 59 61 62 61 60 63 68 67
63 63 63 66 67 68 71 73 74 73 74 75 74 74 74 74 74 74 74 74 73 74 73 74 74 75 74 73 74 75 74 73 72 74 74 74 76 76 74 74 75 75 73 73 73 70 70 71 71 74 74 74 72 74 72 71 71 71 69 70 68 65 67 66 67 66 64 63 63 60 59 60 59 59 64 62 63 62 63 63 61 61 64 66 71